Starlink 5281

operational
NORAD ID: 54190 Int'l Des: 2022-141 Owner: SPXS Country: US Constellation: starlink
LEOCIRCULAR

关于 Starlink 5281

正在加载描述...

实时位置

正在加载3D地球...

即将过境

高度历史

Altitude vs Time

uPlot chart will show altitude changes over time

两行轨道根数

1 54190U 22141AK 26062.11507470 -.00001641 00000-0 -85079-4 0 9997
2 54190 53.2192 23.7531 0001440 101.4666 258.6488 15.08828459185002
Epoch: Mar 3, 2026 • Age: 25 hours

当前状态

高度 545.0 km
速度 7.60 km/s
星下点 50.87°N, 96.5°W
发射日期 Oct 28, 2022
运行时间 3.3 years
类型 internet

技术详情

分类 Payload
质量 305.00 kg
干质量 290.00 kg
总质量 305.00 kg
长度 0.20 m
直径 2.80 m
跨度 9.00 m
形状 Box + pan
制造商 SPXS
平台类型 Starlink
阶段状态 In Orbit
所有者/国家 SPXS/US

大型星座

Loading constellations...